• In France
  • List of Countries
  • For 7 days
  • Water Temperature
  • Satellite Maps
  • Weather Map
  • Weather Widgets
  • user-avatar
    Login

    Hourly Weather Oran

    Today, 14 November, Wednesday

    Time Temperature Precipitation Wind Pressure Humidity
    00:00 +21°C° 0 mm 6 mps 755 mmHg 53%
    01:00 +20°C° 0 mm 5 mps 754 mmHg 54%
    02:00 +20°C° 0 mm 5 mps 754 mmHg 55%
    03:00 +20°C° 0 mm 5 mps 754 mmHg 56%
    04:00 +19°C° 0 mm 5 mps 754 mmHg 57%
    05:00 +19°C° 0 mm 5 mps 754 mmHg 58%
    06:00 +19°C° 0 mm 5 mps 753 mmHg 60%
    07:00 +20°C° 0 mm 5 mps 754 mmHg 56%
    08:00 +20°C° 0 mm 6 mps 754 mmHg 52%
    09:00 +21°C° 0 mm 6 mps 754 mmHg 48%
    10:00 +23°C° 0 mm 6 mps 753 mmHg 43%
    11:00 +24°C° 0 mm 6 mps 753 mmHg 39%
    12:00 +27°C° 0 mm 6 mps 752 mmHg 34%
    13:00 +27°C° 0 mm 6 mps 752 mmHg 33%
    14:00 +27°C° 0 mm 6 mps 751 mmHg 33%
    15:00 +27°C° 0 mm 6 mps 750 mmHg 32%
    16:00 +26°C° 0 mm 6 mps 751 mmHg 37%
    17:00 +24°C° 0 mm 6 mps 751 mmHg 42%
    18:00 +23°C° 0 mm 6 mps 751 mmHg 48%
    19:00 +22°C° 0 mm 6 mps 751 mmHg 48%
    20:00 +22°C° 0 mm 5 mps 751 mmHg 49%
    21:00 +22°C° 0 mm 5 mps 751 mmHg 50%
    22:00 +21°C° 0.3 mm 5 mps 751 mmHg 55%
    23:00 +20°C° 0.3 mm 5 mps 751 mmHg 60%

    Tomorrow, 15 November, Thursday

    Time Temperature Precipitation Wind Pressure Humidity
    00:00 +20°C° 0.3 mm 5 mps 750 mmHg 65%
    01:00 +19°C° 0.1 mm 5 mps 750 mmHg 67%
    02:00 +19°C° 0.1 mm 5 mps 750 mmHg 69%
    03:00 +17°C° 0.1 mm 5 mps 750 mmHg 72%
    04:00 +17°C° 0 mm 5 mps 750 mmHg 73%
    05:00 +17°C° 0 mm 5 mps 750 mmHg 74%
    06:00 +17°C° 0 mm 5 mps 750 mmHg 76%
    07:00 +19°C° 0.1 mm 5 mps 750 mmHg 71%
    08:00 +20°C° 0.1 mm 5 mps 750 mmHg 66%
    09:00 +20°C° 0.1 mm 5 mps 751 mmHg 61%
    10:00 +21°C° 0 mm 5 mps 751 mmHg 56%
    11:00 +22°C° 0 mm 4 mps 750 mmHg 52%
    12:00 +24°C° 0 mm 3 mps 750 mmHg 47%
    13:00 +23°C° 0 mm 4 mps 750 mmHg 48%
    14:00 +23°C° 0 mm 4 mps 750 mmHg 49%
    15:00 +23°C° 0 mm 4 mps 750 mmHg 49%
    16:00 +22°C° 0 mm 4 mps 750 mmHg 54%
    17:00 +21°C° 0 mm 4 mps 750 mmHg 58%
    18:00 +21°C° 0 mm 4 mps 751 mmHg 63%
    19:00 +20°C° 0 mm 4 mps 751 mmHg 65%
    20:00 +20°C° 0 mm 4 mps 751 mmHg 68%
    21:00 +19°C° 0 mm 3 mps 752 mmHg 71%
    22:00 +19°C° 0 mm 3 mps 752 mmHg 73%
    23:00 +18°C° 0 mm 3 mps 752 mmHg 75%

    Day after tomorrow, 16 November, Friday

    Time Temperature Precipitation Wind Pressure Humidity
    00:00 +18°C° 0 mm 3 mps 752 mmHg 77%
    01:00 +18°C° 0 mm 2 mps 751 mmHg 78%
    02:00 +17°C° 0 mm 2 mps 751 mmHg 78%
    03:00 +17°C° 0 mm 2 mps 751 mmHg 79%
    04:00 +17°C° 0 mm 2 mps 751 mmHg 78%
    05:00 +17°C° 0 mm 3 mps 751 mmHg 77%
    06:00 +17°C° 0 mm 3 mps 751 mmHg 77%
    07:00 +18°C° 0 mm 3 mps 751 mmHg 71%
    08:00 +19°C° 0 mm 3 mps 751 mmHg 65%
    09:00 +20°C° 0 mm 3 mps 751 mmHg 59%
    10:00 +21°C° 0 mm 3 mps 751 mmHg 54%
    11:00 +22°C° 0 mm 3 mps 751 mmHg 49%
    12:00 +23°C° 0 mm 4 mps 750 mmHg 44%
    13:00 +25°C° 0 mm 4 mps 750 mmHg 43%
    14:00 +25°C° 0 mm 5 mps 749 mmHg 42%
    15:00 +24°C° 0 mm 6 mps 749 mmHg 41%
    16:00 +23°C° 0 mm 6 mps 749 mmHg 45%
    17:00 +22°C° 0 mm 6 mps 749 mmHg 50%
    18:00 +21°C° 0 mm 6 mps 749 mmHg 55%
    19:00 +20°C° 0 mm 6 mps 749 mmHg 58%
    20:00 +20°C° 0 mm 5 mps 749 mmHg 62%
    21:00 +20°C° 0 mm 5 mps 750 mmHg 65%
    22:00 +19°C° 0.1 mm 5 mps 749 mmHg 67%
    23:00 +19°C° 0.1 mm 4 mps 749 mmHg 68%

    17 November, Saturday

    Time Temperature Precipitation Wind Pressure Humidity
    00:00 +19°C° 0.1 mm 4 mps 749 mmHg 69%
    01:00 +19°C° 0.2 mm 4 mps 749 mmHg 70%
    02:00 +18°C° 0.2 mm 3 mps 749 mmHg 71%
    03:00 +18°C° 0.2 mm 3 mps 749 mmHg 71%
    04:00 +18°C° 0.1 mm 3 mps 749 mmHg 73%
    05:00 +17°C° 0.1 mm 4 mps 749 mmHg 76%
    06:00 +17°C° 0.1 mm 4 mps 749 mmHg 78%
    07:00 +18°C° 0.1 mm 4 mps 749 mmHg 74%
    08:00 +18°C° 0.1 mm 4 mps 749 mmHg 70%
    09:00 +19°C° 0.1 mm 3 mps 750 mmHg 66%
    10:00 +20°C° 0.2 mm 4 mps 750 mmHg 62%
    11:00 +21°C° 0.2 mm 4 mps 750 mmHg 58%
    12:00 +21°C° 0.2 mm 4 mps 750 mmHg 55%
    13:00 +21°C° 0 mm 4 mps 749 mmHg 55%
    14:00 +21°C° 0 mm 4 mps 749 mmHg 56%
    15:00 +21°C° 0 mm 5 mps 749 mmHg 56%
    16:00 +21°C° 0 mm 5 mps 749 mmHg 62%
    17:00 +20°C° 0 mm 5 mps 749 mmHg 67%
    18:00 +19°C° 0 mm 4 mps 749 mmHg 72%
    19:00 +19°C° 0 mm 4 mps 749 mmHg 74%
    20:00 +18°C° 0 mm 4 mps 749 mmHg 77%
    21:00 +18°C° 0 mm 4 mps 750 mmHg 80%
    22:00 +18°C° 0 mm 4 mps 749 mmHg 80%
    23:00 +17°C° 0 mm 4 mps 749 mmHg 81%

    18 November, Sunday

    Time Temperature Precipitation Wind Pressure Humidity
    00:00 +17°C° 0 mm 3 mps 748 mmHg 81%
    01:00 +17°C° 0 mm 4 mps 748 mmHg 81%
    02:00 +17°C° 0 mm 4 mps 748 mmHg 80%
    03:00 +17°C° 0 mm 4 mps 747 mmHg 80%
    04:00 +17°C° 0 mm 4 mps 747 mmHg 78%
    05:00 +17°C° 0 mm 4 mps 747 mmHg 77%
    06:00 +15°C° 0 mm 4 mps 747 mmHg 75%
    07:00 +18°C° 0 mm 4 mps 747 mmHg 69%
    08:00 +19°C° 0 mm 5 mps 747 mmHg 63%
    09:00 +20°C° 0 mm 5 mps 747 mmHg 57%
    10:00 +21°C° 0 mm 5 mps 746 mmHg 49%
    11:00 +23°C° 0 mm 5 mps 746 mmHg 42%
    12:00 +25°C° 0 mm 5 mps 746 mmHg 35%
    13:00 +25°C° 0 mm 5 mps 745 mmHg 34%
    14:00 +26°C° 0 mm 6 mps 745 mmHg 33%
    15:00 +26°C° 0 mm 6 mps 744 mmHg 33%
    16:00 +24°C° 0.1 mm 6 mps 744 mmHg 38%
    17:00 +23°C° 0.1 mm 5 mps 744 mmHg 43%
    18:00 +22°C° 0.1 mm 5 mps 744 mmHg 47%
    19:00 +21°C° 0.4 mm 4 mps 744 mmHg 49%
    20:00 +21°C° 0.4 mm 4 mps 744 mmHg 50%
    21:00 +20°C° 0.4 mm 3 mps 744 mmHg 52%
    22:00 +20°C° 0.3 mm 3 mps 744 mmHg 55%
    23:00 +19°C° 0.3 mm 3 mps 744 mmHg 57%

    19 November, Monday

    Time Temperature Precipitation Wind Pressure Humidity
    00:00 +19°C° 0.3 mm 2 mps 743 mmHg 60%
    01:00 +18°C° 0.4 mm 3 mps 743 mmHg 63%
    02:00 +18°C° 0.4 mm 4 mps 742 mmHg 67%
    03:00 +17°C° 0.4 mm 4 mps 742 mmHg 71%
    04:00 +16°C° 0.5 mm 5 mps 742 mmHg 72%
    05:00 +15°C° 0.5 mm 5 mps 742 mmHg 73%
    06:00 +15°C° 0.5 mm 6 mps 742 mmHg 75%
    07:00 +15°C° 0.7 mm 6 mps 742 mmHg 76%
    08:00 +15°C° 0.7 mm 6 mps 742 mmHg 77%
    09:00 +15°C° 0.7 mm 6 mps 742 mmHg 78%
    10:00 +15°C° 1.5 mm 8 mps 743 mmHg 79%
    11:00 +15°C° 1.5 mm 9 mps 743 mmHg 81%
    12:00 +13°C° 1.5 mm 11 mps 743 mmHg 82%
    13:00 +14°C° 1.2 mm 11 mps 743 mmHg 81%
    14:00 +14°C° 1.2 mm 11 mps 743 mmHg 79%
    15:00 +14°C° 1.2 mm 11 mps 743 mmHg 77%
    16:00 +14°C° 0.9 mm 10 mps 743 mmHg 78%
    17:00 +14°C° 0.9 mm 10 mps 744 mmHg 79%
    18:00 +14°C° 0.9 mm 10 mps 744 mmHg 80%
    19:00 +14°C° 0.8 mm 10 mps 745 mmHg 79%
    20:00 +14°C° 0.8 mm 10 mps 745 mmHg 79%
    21:00 +14°C° 0.8 mm 10 mps 746 mmHg 78%
    22:00 +15°C° 0.8 mm 9 mps 746 mmHg 78%
    23:00 +15°C° 0.8 mm 9 mps 746 mmHg 77%
    Show more